Regional Weather Roundup
Issued by NWS

Home | Current Version | Previous Version | Graphics & Text | Print | Product List | Glossary Off
Versions: 1 2 3 4 5 6 7 8 9 10 11 12 13 14 15 16 17 18 19 20 21 22 23 24 25 26 27 28 29 30 31 32 33 34 35 36 37 38 39 40 41 42 43 44 45 46 47 48 49 50

000
ASUS43 KTOP 221359
RWRKS

WEATHER ROUNDUP FOR KANSAS
NATIONAL WEATHER SERVICE GOODLAND KS
800 AM CST WED NOV 22 2017

NOTE:  "FAIR" INDICATES FEW OR NO CLOUDS BELOW 12,000 FEET WITH NO
SIGNIFICANT WEATHER AND/OR OBSTRUCTIONS TO VISIBILITY.

KSZ001>006-013>018-027>032-041>047-221500-
NORTHWEST KANSAS

CITY           SKY/WX    TMP DP  RH WIND       PRES   REMARKS
GOODLAND       CLOUDY    40  30  67 W10       30.19F WCI  33
HAYS           CLOUDY    23  17  78 S6        30.36R
HILL CITY      CLOUDY    29  17  61 CALM      30.31S
RUSSELL        CLOUDY    22  16  78 S9        30.35S
$$

KSZ061>065-074>080-084>089-221500-
SOUTHWEST KANSAS

CITY           SKY/WX    TMP DP  RH WIND       PRES   REMARKS
DODGE CITY     CLOUDY    29  15  56 S10       30.34S WCI  20
GARDEN CITY    CLOUDY    31  22  69 S12       30.29F WCI  22
GREAT BEND     CLOUDY    24  17  74 S6        30.38F
LIBERAL        MOCLDY    29  24  82 S10       30.35S WCI  20
$$

KSZ066>073-081>083-090>101-221500-
SOUTHEAST KANSAS

CITY           SKY/WX    TMP DP  RH WIND       PRES   REMARKS
CHANUTE        CLOUDY    24  16  71 NW5       30.44R
COFFEYVILLE    CLOUDY    25  18  74 CALM      30.44F
HUTCHINSON     CLOUDY    20  14  77 CALM      30.41R
MEDICINE LODGE   N/A     24  16  71 CALM      30.42S
NEWTON         PTCLDY    18  14  84 SE3       30.41S
PARSONS        CLOUDY    22  19  89 CALM      30.45S
WICHITA INTL   PTCLDY    22  16  78 S5        30.43R
WICHITA JABRA  CLOUDY    22  14  71 CALM      30.42R
WICHITA MCCONL CLOUDY    23  13  65 CALM      30.41S
WINFIELD       CLOUDY    22  17  81 W5        30.44R
$$

KSZ007>012-019>026-033>040-048>060-102>105-221500-
NORTHEAST KANSAS

CITY           SKY/WX    TMP DP  RH WIND       PRES   REMARKS
CONCORDIA      CLOUDY    19  14  81 SW7       30.38S
EMPORIA        CLOUDY    20  14  77 CALM      30.42R
LAWRENCE       CLOUDY    20  16  84 CALM      30.45R
MANHATTAN      CLOUDY    19  13  77 CALM      30.42S
OLATHE IND     CLOUDY    20  16  84 NW3       30.43R
OLATHE EXE     CLOUDY    21  16  81 NW3       30.42R
SALINA         CLOUDY    21  14  74 SW5       30.43R
TOPEKA BILLARD CLOUDY    20  16  84 CALM      30.44R
TOPEKA FORBES  CLOUDY    21  15  78 CALM      30.42R
$$




USA.gov is the U.S. government's official web portal to all federal, state and local government web resources and services.